User: anonymous   Login
Location: Newark
(36.1358°N, 115.1208°W)
Time: 01:26:53
(UTC+00:00)
Language:

Tiros 1 - Orbit

View from above orbital plane
View from above orbital plane
View from above satellite
View from above satellite

Ground track
Ground track

The orbit data is extracted from the following two-line orbital elements,

1    29U 60002B   20059.81154321 -.00000131  00000-0  11511-4 0  9999
2    29  48.3794 106.0474 0023583 124.4219 235.8926 14.74343219202483
Epoch (UTC): 28 February 2020 19:28:37
Eccentricity: 0.0023583
inclination: 48.3794°
perigee height: 630 km
apogee height: 664 km
right ascension of ascending node: 106.0474°
argument of perigee: 124.4219°
revolutions per day: 14.74343219
mean anomaly at epoch: 235.8926°
orbit number at epoch: 20248

The dashed part of the orbit path shows where the satellite is in the earth's shadow,  

DLR